Weather in Pokrovskaya

Russia / Saint-Petersburg and Leningrad Oblast     59°38′44″N   30°23′54″E
temp.,
°C
wind,
m/s
gust,
m/s
humid.,
%
clouds,
%
prec.,
mm/h
press.,
hPa
HPBL,
m
8 december, wed
wed800:00−16wsw259979 0.0 101762
03:00−16wsw2210089 0.1 101828
06:00−17wsw1110088 0.1 101910
09:00−15wsw119993 0.1 102112
12:00−14wsw119973 0.0 102227
15:00−14sw1199100 0.1 102310
18:00−15wsw1198100 0.0 102414
21:00−17wsw1110075 0.1 10259
9 december, thu
thu900:00−18sw1110092 0.0 102610
03:00−19wsw1110093 0.0 102710
06:00−20wsw1110094 0.0 10279
09:00−20sw1110099 0.0 10299
12:00−16ssw119979 0.0 103021
15:00−16s1199100 0.0 10309
18:00−18sse2299100 0.0 103011
21:00−17sse2298100 0.0 103132
10 december, fri
fri1000:00−17sse259881 0.0 103176
03:00−18se269822 0.0 103173
06:00−16se310945 0.0 1030143
09:00−14se312915 0.0 1030207
12:00−11se514875 0.0 1029317
15:00−10se5148413 0.0 1028370
18:00−10se514845 0.0 1028351
21:00−10se515825 0.0 1028377
11 december, sat
sat1100:00−10se516825 0.0 1027391
03:00−9se515818 0.0 1027393
06:00−9se51582100 0.0 1027374
09:00−9se51582100 0.0 1026386
12:00−7se51582100 0.0 1026415
15:00−5se61483100 0.0 1025436
18:00−5se5138592 0.0 1025406
21:00−4se51487100 0.0 1024420
12 december, sun
sun1200:00−5se51390100 0.0 1024436
03:00−4se51394100 0.1 1023471
06:00−3sse51394100 0.1 1023497
09:000sse51395100 0.1 1023704
12:00+1ssw51195100 0.2 1024678
15:00+1s51195100 0.3 1025438
18:000s41093100 0.0 1026300
21:00−1sse3797100 0.0 1025148